COSMOS 1275 DEB, 12725

Orbit data source: Space-Track

COSMOS 1275 DEB, 12725 is space debris in LEO originally from a launch on Thu, 04 Jun 1981 UTC launched from the Plesetsk Missile And Space Complex (PKMTR). Debris objects in space refer to the collection of defunct objects orbiting the Earth. Examples of debris include non-operational satellites, rocket bodies, and fragments generated from explosions, collisions, or faulty payload assembly.

Loading next visibility...
Identifier
12725, 1981-053BS
Orbit
LEO
Country
Flag of CISCIS
Related business
Manufacturer
Unknown
Mission
Spacecraft
Bus & Motor
Unknown
Mass
Unknown
Launch date (UTC)
1981-06-04 (44 years ago)
Launch vehicle
Unknown
Launch site
Plesetsk Missile And Space Complex (PKMTR)
Object type
Payload
Rocket body
Debris
Shape & HBR
Unknown shape, 0.1 m
Radar Cross Section
Small (<0.1 m²)

Expand to show TLE details & history
Last TLE update: 18 hours ago

TLE from 18 hours ago
0 COSMOS 1275 DEB
1 12725U 81053BS  25302.32857358  .00001911  00000-0  16271-2 0  9998
2 12725  83.1373 143.5099 0092732 306.3337 236.2030 13.84861107209605
Epoch: 2025-10-29T07:53Z
TLE epoch observation values (Epoch: 2025-10-29T07:53:08.757Z)
Latitude
-1.7731°
Longitude
167.53249°
Altitude
988.084 km
Speed
7.338 km/s
True Right ascension
21h 34m 53s
True Declination
-1° 45' 46"
Sunlit
Object was in daylight at epoch
Visualization orbit readout
Latitude
Unknown
Longitude
Unknown
Altitude
Unknown
Speed
Unknown
Apparent Right ascension
Unknown
Apparent Declination
Unknown
Sunlit
N/A
Visualization observer readout
Local Sidereal Time
21:27:27
Azimuth
Unknown
Elevation
Unknown
Doppler factor
Unknown
Orbital elements
Apogee altitude
1,011.721 km
Perigee altitude
875.925 km
Semi-major axis
7,321.96 km
Eccentricity
0.00927
Inclination
83.1373°
RAAN
143.5099°
Arg. of periapsis
306.3337°
True anomaly
235.32563°
Mean anomaly
236.203°
Eccentric anomaly
235.76375°
Mean motion
3.46419 °/min
Orbital period
103.92 mins
BSTAR
0.0016271
Loading maneuver chart data...
Computing Atmospheric mass density...
Loading historical data...
Loading historical data...
Loading historical data...
Loading historical data...
Loading historical data...
Loading historical data...
Loading historical data...

Documentation

Showing up to 5 results
|